TimeCDT,TemperatureF,Dew PointF,Humidity,Sea Level PressureIn,VisibilityMPH,Wind Direction,Wind SpeedMPH,Gust SpeedMPH,PrecipitationIn,Events,Conditions,WindDirDegrees,DateUTC
12:58 AM,49.3,48.6,97,30.15,10.0,NW,6.9,-,N/A,,Overcast,320,2013-04-20 05:58:00
1:58 AM,48.9,47.5,95,30.15,10.0,NW,8.1,-,N/A,,Overcast,320,2013-04-20 06:58:00
2:58 AM,47.7,45.5,92,30.15,10.0,NNW,8.1,-,N/A,,Mostly Cloudy,330,2013-04-20 07:58:00
3:58 AM,46.9,43.0,86,30.14,10.0,NNW,10.4,-,N/A,,Mostly Cloudy,340,2013-04-20 08:58:00
4:58 AM,45.3,40.8,84,30.17,10.0,North,10.4,-,N/A,,Clear,360,2013-04-20 09:58:00
5:58 AM,44.1,39.7,85,30.19,10.0,North,9.2,-,N/A,,Clear,360,2013-04-20 10:58:00
6:58 AM,43.7,40.3,88,30.21,10.0,North,8.1,-,N/A,,Clear,360,2013-04-20 11:58:00
7:58 AM,47.1,39.6,75,30.23,10.0,North,12.7,-,N/A,,Clear,10,2013-04-20 12:58:00
8:58 AM,51.6,38.1,60,30.24,10.0,NNE,12.7,-,N/A,,Clear,30,2013-04-20 13:58:00
9:58 AM,55.4,36.1,48,30.25,10.0,NNE,16.1,23.0,N/A,,Clear,20,2013-04-20 14:58:00
10:58 AM,58.8,35.8,42,30.25,10.0,NNE,11.5,24.2,N/A,,Clear,20,2013-04-20 15:58:00
11:58 AM,60.4,33.3,36,30.23,10.0,North,13.8,21.9,N/A,,Clear,10,2013-04-20 16:58:00
12:58 PM,62.6,34.7,35,30.21,10.0,North,12.7,20.7,N/A,,Clear,10,2013-04-20 17:58:00
1:41 PM,62.6,35.6,37,30.18,10.0,NE,12.7,17.3,N/A,,Clear,50,2013-04-20 18:41:00
1:58 PM,64.0,37.0,37,30.18,10.0,ENE,10.4,18.4,N/A,,Clear,60,2013-04-20 18:58:00
2:58 PM,66.2,37.8,35,30.16,10.0,NNE,12.7,20.7,N/A,,Clear,20,2013-04-20 19:58:00
3:58 PM,66.9,37.8,34,30.15,10.0,NE,10.4,-,N/A,,Clear,40,2013-04-20 20:58:00
4:58 PM,67.3,39.2,36,30.14,10.0,Variable,6.9,-,N/A,,Clear,0,2013-04-20 21:58:00
5:58 PM,66.7,38.8,36,30.14,10.0,North,8.1,-,N/A,,Clear,360,2013-04-20 22:58:00
6:58 PM,63.5,39.7,42,30.15,10.0,NE,4.6,-,N/A,,Clear,40,2013-04-20 23:58:00
7:58 PM,55.9,43.9,64,30.18,10.0,ENE,2.3,-,N/A,,Clear,60,2013-04-21 00:58:00
8:58 PM,51.6,44.4,76,30.19,10.0,East,2.3,-,N/A,,Clear,80,2013-04-21 01:58:00
9:58 PM,49.5,44.6,83,30.21,10.0,ENE,2.3,-,N/A,,Clear,70,2013-04-21 02:58:00
10:58 PM,45.3,43.2,92,30.21,10.0,North,2.3,-,N/A,,Clear,350,2013-04-21 03:58:00
11:58 PM,43.5,41.7,93,30.21,10.0,NNW,2.3,-,N/A,,Clear,330,2013-04-21 04:58:00